Vorticity
nan nan nan nan nan nan nan nan nan nan nan nan nan nan nan nan nan nan nan nan nan nan nan nan nan nan nan nan nan nan nan nan nan nan nan nan nan nan nan nan nan nan nan nan
nan 11 12 20 21 -1 -5 8 9 10 13 11 7 10 12 11 9 9 10 9 12 13 11 9 12 10 8 6 7 9 7 7 7 20 17 14 13 -0 -7 4 11 7 4 nan
nan 13 18 23 7 -8 5 10 6 8 9 10 14 12 10 13 9 7 10 11 11 11 10 8 10 9 8 2 4 6 6 8 6 -1 -8 1 2 1 6 9 7 9 4 nan
nan 24 28 21 6 -3 2 10 12 12 12 10 14 10 8 10 11 11 11 9 11 5 7 10 10 7 7 5 6 3 4 6 7 4 6 6 8 10 9 9 5 6 9 nan
nan 23 19 16 5 1 9 13 7 10 15 17 13 7 10 7 11 11 5 10 13 6 4 5 7 12 6 6 10 10 4 5 10 9 10 10 10 10 9 16 19 12 7 nan
nan 9 5 6 7 11 12 7 10 15 12 8 9 12 14 14 5 6 12 10 8 14 9 7 8 9 8 8 6 7 7 10 9 6 6 12 16 13 14 10 14 16 10 nan
nan 6 4 6 11 14 11 10 11 10 11 10 11 10 10 12 4 6 13 13 8 9 14 14 12 11 9 9 8 8 9 7 7 8 9 10 7 16 17 10 5 12 11 nan
nan 7 6 5 4 8 13 11 7 9 12 11 12 10 10 7 7 10 9 9 11 9 6 10 14 19 17 17 16 14 11 9 8 11 8 5 8 14 9 6 10 15 5 nan
nan 6 7 8 6 6 9 8 10 12 12 15 12 12 9 9 10 9 4 11 12 6 9 9 7 5 11 17 18 17 14 10 5 6 8 11 9 15 5 8 11 -5 5 nan
nan 7 9 9 8 12 9 6 13 13 9 15 14 14 10 11 8 11 16 7 5 9 8 8 8 8 11 11 6 9 12 12 8 8 6 0 11 11 18 15 -1 -4 10 nan
nan 8 8 8 8 14 12 8 10 15 13 8 9 13 14 14 13 11 12 7 13 11 7 9 14 14 11 11 11 7 10 11 13 12 14 1 6 13 13 8 4 10 12 nan
nan 7 7 7 8 11 16 13 8 11 11 9 12 9 9 7 13 17 8 6 12 9 9 10 10 10 11 8 13 11 12 9 9 10 7 11 8 9 3 6 12 10 13 nan
nan 6 5 7 8 10 16 13 11 11 12 11 13 12 12 10 6 10 8 7 8 7 8 12 11 9 10 12 7 10 15 12 7 6 3 6 5 6 13 12 8 9 10 nan
nan 6 5 6 6 7 13 11 11 14 10 12 14 12 10 13 14 9 4 5 10 13 15 9 7 8 9 10 10 13 11 9 12 12 8 7 11 9 2 9 10 13 12 nan
nan 6 5 5 5 5 10 7 10 11 12 13 11 11 9 14 15 13 11 11 8 8 9 10 8 7 11 14 14 13 13 14 13 8 11 14 8 5 8 12 14 11 10 nan
nan 9 7 4 3 7 7 7 10 7 11 14 11 11 12 11 12 14 13 12 11 9 9 10 10 10 13 12 7 4 12 18 15 12 10 10 15 12 17 14 11 11 11 nan
nan 11 9 6 7 14 11 11 10 8 13 12 13 11 8 9 11 13 16 14 11 12 12 12 9 15 14 9 9 14 11 4 6 13 21 18 16 15 11 13 12 11 12 nan
nan 8 5 5 11 16 11 9 5 10 14 11 12 13 9 9 12 12 13 12 11 12 9 12 14 15 10 8 12 12 17 14 8 8 14 18 11 7 10 12 12 12 10 nan
nan 4 7 7 6 5 12 12 6 10 13 13 10 10 13 12 10 13 12 12 10 11 11 12 13 12 5 6 9 11 14 11 8 13 15 11 10 11 10 10 10 10 10 nan
nan 2 5 9 17 15 8 7 9 12 12 12 9 10 10 12 11 11 12 11 10 13 14 10 11 14 13 8 11 16 12 13 15 14 11 10 11 10 10 11 11 11 10 nan
nan 11 11 13 11 8 8 12 12 12 13 11 7 8 13 13 10 12 12 10 12 12 15 9 11 18 23 15 13 12 10 11 10 10 10 10 10 9 9 9 12 12 9 nan
nan 14 13 9 11 10 10 12 12 10 13 12 8 10 14 14 12 11 11 10 10 15 10 9 13 18 17 9 8 8 8 9 8 8 7 8 8 11 12 10 9 10 13 nan
nan 8 9 10 13 10 13 11 9 15 10 8 9 10 14 13 10 11 12 13 9 11 9 9 17 15 7 10 10 9 9 8 8 8 9 9 9 8 9 12 11 10 14 nan
nan 12 9 12 9 10 10 8 11 11 8 8 12 13 12 11 12 11 11 11 11 11 11 12 11 11 10 9 8 10 10 10 9 10 10 10 12 12 12 13 8 10 10 nan
nan 11 12 12 6 10 10 10 10 8 10 10 12 13 12 10 12 11 11 12 12 10 11 13 10 7 8 10 10 12 12 11 9 11 14 12 11 10 11 11 8 9 9 nan
nan 11 10 11 12 11 10 10 11 12 11 11 13 12 12 14 12 12 11 10 12 12 10 11 16 11 8 8 11 13 12 10 11 10 10 11 12 9 11 15 15 10 10 nan
nan nan nan nan nan nan nan nan nan nan nan nan nan nan nan nan nan nan nan nan nan nan nan nan nan nan nan nan nan nan nan nan nan nan nan nan nan nan nan nan nan nan nan nan
CAPE
0 0 0 0 0 0 0 1 0 6 7 0 3 3 0 0 0 0 3 10 8 9 4 5 3 4 1 1 1 2 1 0 0 0 0 0 0 3 16 38 9 4 8 3
0 0 0 0 0 0 0 0 3 6 11 0 4 7 5 2 8 12 12 10 6 0 8 23 17 13 1 0 0 0 0 0 0 0 0 0 1 9 0 0 0 1 33 5
0 0 0 0 0 0 0 1 0 0 10 3 5 7 10 7 11 9 8 10 7 15 24 14 12 30 1 0 0 0 0 0 0 0 0 0 0 0 0 0 5 5 30 4
0 0 0 0 0 0 0 1 0 0 1 7 9 11 9 14 14 9 11 22 15 17 14 13 11 13 34 12 1 0 0 3 3 0 0 0 0 0 0 0 1 38 52 14
0 1 2 5 3 0 0 0 1 3 5 9 4 6 16 22 16 14 30 29 10 17 19 2 1 2 7 5 0 3 9 14 5 0 0 0 0 2 0 1 22 36 59 100
9 7 4 1 0 0 2 4 3 3 6 14 15 17 22 27 15 12 12 12 13 16 12 8 12 8 7 4 4 2 5 10 13 3 0 4 16 8 21 36 43 43 81 58
10 7 3 2 1 0 3 7 5 6 14 15 17 26 16 41 27 11 2 4 22 9 0 0 0 0 0 0 0 0 2 6 19 39 30 44 17 19 30 72 55 77 10 37
4 2 0 0 0 0 0 0 0 13 34 10 14 6 16 10 8 6 2 1 2 0 0 0 0 0 0 0 0 0 1 16 75 91 67 48 38 51 49 6 1 6 20 20
2 0 0 0 0 0 0 0 0 0 3 0 0 1 0 4 6 8 0 0 0 0 0 8 0 0 0 0 0 10 8 77 112 60 77 71 65 29 0 0 0 4 16 16
2 0 0 0 0 0 0 0 0 0 0 0 0 0 1 0 1 8 12 14 2 0 18 30 22 16 10 13 22 29 34 64 135 171 148 86 25 41 0 1 13 0 10 23
1 0 0 0 0 0 0 0 0 0 0 0 0 0 0 0 0 2 1 6 9 40 22 28 33 48 42 23 59 35 31 56 80 76 95 48 91 1 0 0 0 5 17 9
4 0 0 0 0 0 0 0 0 0 0 0 0 0 0 0 0 0 23 2 8 25 39 65 54 65 52 57 75 40 63 68 87 69 57 16 2 97 0 0 19 23 17 8
6 0 0 0 0 0 0 0 0 0 0 0 0 0 0 0 0 0 11 7 1 12 51 72 67 45 57 78 56 56 78 86 124 107 33 78 12 0 0 41 60 25 15 16
14 0 0 0 0 0 0 0 0 0 0 0 3 0 0 0 0 0 0 2 11 17 55 62 62 45 59 103 106 98 78 82 68 103 22 2 0 7 28 33 36 9 30 10
15 0 0 0 0 0 7 7 2 0 11 17 11 0 0 0 0 0 0 1 13 53 49 58 47 30 67 87 83 62 48 44 107 95 17 47 2 3 7 18 40 25 22 26
17 1 1 0 0 0 34 39 3 2 8 18 19 0 0 0 1 1 4 20 33 45 45 49 38 26 48 57 35 22 7 0 0 8 6 7 13 9 8 46 9 12 16 25
28 15 3 0 0 23 17 22 15 0 11 19 7 2 0 0 0 9 15 18 28 35 55 39 26 15 43 38 23 14 15 10 6 12 36 28 36 30 6 6 1 1 10 5
12 0 0 0 0 0 19 10 1 3 14 2 11 3 10 0 25 70 20 21 25 28 32 25 21 26 53 37 1 2 1 2 18 30 3 22 11 10 0 4 2 6 3 7
3 0 0 9 13 27 20 0 0 27 12 11 8 13 46 3 20 20 61 76 63 30 43 26 33 45 57 3 6 5 27 16 13 10 19 16 3 4 1 1 1 9 6 3
0 9 32 35 17 0 0 7 8 10 7 8 13 9 22 14 31 40 36 59 52 86 31 24 52 19 12 13 18 29 14 2 1 4 4 5 4 3 1 4 1 4 11 13
22 24 21 16 0 23 11 3 4 4 6 8 12 12 18 30 38 58 34 52 56 41 63 39 46 22 4 5 5 8 4 0 3 3 6 6 8 3 2 1 2 3 3 6
10 9 6 16 24 7 3 5 4 5 10 17 17 27 34 34 31 36 40 36 37 18 24 29 33 153 7 7 1 2 1 5 7 8 0 1 4 7 6 7 6 7 8 11
41 13 11 3 11 3 5 4 7 14 26 25 43 40 18 49 18 47 41 39 29 36 39 38 155 29 3 9 2 8 7 8 9 1 1 0 9 11 11 14 16 11 13 3
9 1 1 8 6 4 13 22 38 47 38 29 30 18 26 31 46 18 27 34 45 34 38 68 49 16 6 5 2 18 16 20 20 21 32 20 12 4 4 23 13 2 16 13
1 2 3 7 13 16 16 19 18 25 26 41 50 38 38 41 39 49 54 41 36 32 76 48 50 26 11 12 9 9 13 16 11 12 8 17 12 11 8 14 24 4 4 6
8 8 6 9 7 17 6 11 41 61 44 55 37 26 29 37 36 18 35 23 21 91 43 44 30 18 4 3 3 5 3 5 4 4 5 5 4 3 1 1 3 26 18 18
6 9 12 18 10 8 9 10 57 38 46 31 42 24 19 38 32 20 39 86 18 24 28 49 44 3 6 6 5 2 2 7 8 7 2 1 2 1 2 4 4 2 1 14